Flag for Norway Weather past 2 weeks in Kopervik, Norway

Now
50 °F

Light rain. Mostly cloudy.


Feels Like: 45 °F
Forecast: 52 / 56 °F
Wind: 13 mph from Southeast

Location: Haugesund / Karmoy

Current Time: Aug 1, 2015 at 6:39:32 AM

Latest Report: Aug 1, 2015 at 5:50 AM


Visibility: N/A

Pressure: 29.92 "Hg

Humidity: 94%

Dew point: 48 °F

Location of KopervikLocation

Historic Weather in Kopervik — Graph

°F

Kopervik temperature yesterday

Maximum temperature yesterday: 57 °F (at 1:50 PM)
Minimum temperature yesterday: 48 °F (at 10:50 PM)
Average temperature yesterday: 53 °F

Past Weeks' High & Low Weather Summary

 TemperatureHumidityPressure
High70 °F (Jul 17, 2:20 PM)100% (Jul 18, 4:50 AM)30.07 "Hg (Jul 18, 4:50 AM)
Low45 °F (Jul 17, 4:50 AM)40% (Jul 17, 2:20 PM)29.39 "Hg (Jul 29, 12:50 PM)
Average56 °F84%29.69 "Hg
* Reported Jul 17 4:20 AM — Aug 1 4:50 AM, Kopervik, Weather by CustomWeather, © 2015

Note: Actual official high and low records may vary slightly from our data, if they occured in-between our weather recording intervals... More about our weather records

Advertising

Kopervik weather history for previous 24 hours

 ConditionsComfort  
Time TempWeatherWind HumidityBarometerVisibility
4:50 AM
Sat, Aug 1
50 °FLight rain. Overcast.12 mph88%29.92 "HgN/A
4:20 AM50 °FLight rain. Mostly cloudy.9 mph94%29.95 "HgN/A
3:50 AM50 °FLight rain. Overcast.8 mph94%29.95 "HgN/A
3:20 AM50 °FLight rain. Passing clouds.9 mph94%29.95 "HgN/A
2:50 AM50 °FLight rain. Mostly cloudy.9 mph88%29.95 "HgN/A
2:20 AM50 °FMostly cloudy.8 mph88%29.95 "HgN/A
1:50 AM50 °FMostly cloudy.8 mph88%29.95 "HgN/A
1:20 AM50 °FMostly cloudy.8 mph82%29.95 "HgN/A
12:50 AM48 °FMostly cloudy.7 mph87%29.95 "HgN/A
12:20 AM48 °FMostly cloudy.7 mph87%29.95 "HgN/A
11:50 PM
Fri, Jul 31
48 °FOvercast.6 mph87%29.95 "HgN/A
11:20 PM48 °FPassing clouds.6 mph82%29.95 "HgN/A
10:50 PM48 °FSunny.3 mph82%29.95 "Hg10 mi
10:20 PM50 °FSunny.No wind82%29.95 "Hg10 mi
9:50 PM52 °FSunny.1 mph72%29.95 "Hg10 mi
9:20 PM52 °FSunny.No wind72%29.95 "Hg10 mi
8:50 PM52 °FSunny.1 mph72%29.95 "Hg10 mi
8:20 PM54 °FSunny.3 mph72%29.95 "Hg10 mi
7:50 PM55 °FSunny.5 mph67%29.95 "Hg10 mi
7:20 PM55 °FPassing clouds.6 mph67%29.98 "HgN/A
6:50 PM55 °FPassing clouds.6 mph67%29.98 "HgN/A
6:20 PM55 °FPassing clouds.8 mph67%29.98 "HgN/A
5:50 PM55 °FPassing clouds.7 mph72%29.98 "HgN/A
5:20 PM55 °FScattered clouds.8 mph67%29.98 "HgN/A
4:50 PM57 °FScattered clouds.8 mph63%29.98 "HgN/A
4:20 PM55 °FScattered clouds.8 mph67%29.98 "HgN/A
3:50 PM55 °FScattered clouds.9 mph67%29.98 "HgN/A
3:20 PM55 °FScattered clouds.9 mph67%29.98 "HgN/A
2:50 PM55 °FScattered clouds.12 mph72%29.95 "HgN/A
2:20 PM57 °FPartly sunny.9 mph63%29.95 "HgN/A
1:50 PM57 °FPartly sunny.8 mph67%29.95 "HgN/A
1:20 PM55 °FPartly sunny.8 mph72%29.95 "HgN/A
12:50 PM54 °FPartly sunny.8 mph77%29.95 "HgN/A
12:20 PM55 °FPartly sunny.10 mph77%29.95 "HgN/A
11:50 AM54 °FPartly sunny.9 mph77%29.95 "HgN/A
11:20 AM54 °FPartly sunny.13 mph72%29.95 "HgN/A
10:50 AM54 °FPartly sunny.10 mph72%29.95 "HgN/A
10:20 AM54 °FLight rain. Partly sunny.9 mph77%29.92 "HgN/A
9:20 AM50 °FPartly sunny.13 mph88%29.92 "HgN/A
8:50 AM52 °FPartly sunny.12 mph77%29.92 "HgN/A
8:20 AM52 °FPartly sunny.16 mph77%29.92 "HgN/A
7:50 AM52 °FPartly sunny.8 mph82%29.89 "HgN/A
7:20 AM52 °FPartly sunny.8 mph82%29.89 "HgN/A
6:50 AM50 °FPartly sunny.12 mph88%29.89 "HgN/A
Weather by CustomWeather, © 2015

See weather overviewHow to use our weather pages